Theta_e
344 342 346 335 316 314 309 313 320 318 319 326 330 326 324 325 320 312 338 343 347 348 352 354 358 357 356 355 355 359 359 358 357 359 362 361 362 362 363 360 360 361 361 361 361 361 361 361 360
335 343 338 326 310 306 310 319 317 321 325 327 327 326 324 322 333 334 335 344 347 349 350 351 358 358 357 355 354 356 360 359 355 354 361 363 362 362 360 362 362 362 361 361 361 362 360 360 360
349 342 325 317 313 309 312 320 320 324 327 328 326 330 327 325 334 335 340 343 344 346 349 351 357 359 357 356 356 358 359 360 360 360 361 362 361 360 361 361 360 359 359 359 357 356 354 356 355
346 337 331 316 315 319 318 321 324 324 327 329 328 323 330 335 333 337 342 342 342 342 347 355 357 357 357 356 358 360 360 360 359 360 360 361 361 360 360 360 358 358 357 356 357 356 355 352 352
339 330 316 316 316 321 323 325 326 322 323 326 326 322 324 333 338 340 340 342 341 342 346 351 358 358 357 354 357 358 359 361 361 360 359 360 361 360 359 358 357 358 358 357 356 356 355 354 353
323 328 313 311 316 321 325 327 326 324 325 325 324 323 323 333 334 336 340 341 343 342 344 349 356 357 357 356 357 358 359 360 360 360 360 361 359 358 358 357 356 356 357 358 357 356 356 357 358
322 321 313 314 316 320 323 329 324 322 322 322 327 320 325 328 333 335 335 338 340 341 344 345 348 353 357 357 358 358 358 359 360 359 359 359 358 357 356 357 355 355 355 356 356 358 359 359 359
328 323 317 318 317 317 327 328 328 326 323 330 330 320 320 326 334 333 334 334 335 339 340 340 342 347 347 349 356 357 356 357 359 356 356 357 356 356 355 357 358 358 357 356 357 357 358 360 361
332 318 313 316 318 320 328 324 330 332 326 328 330 328 329 332 333 331 330 333 336 337 337 339 339 341 343 342 344 351 354 356 357 357 358 354 348 346 350 355 358 359 360 360 360 362 364 363 362
324 314 316 323 326 323 326 328 326 324 324 325 326 329 330 331 330 329 329 330 332 333 336 337 337 341 342 345 344 345 350 349 348 347 347 348 347 348 353 356 359 361 361 362 362 362 362 361 355
326 315 324 325 328 329 326 326 328 325 320 324 323 325 329 329 329 329 331 332 331 335 338 337 337 343 343 344 344 343 346 347 342 344 343 344 348 346 346 346 347 346 353 349 351 351 351 348 348
322 326 327 326 328 327 325 328 325 326 325 329 329 330 329 328 329 329 332 332 333 335 337 338 340 343 344 343 343 345 345 341 341 345 345 344 344 344 342 344 343 341 344 346 349 348 341 346 347
322 324 327 327 327 328 330 327 327 326 330 331 330 331 329 329 329 330 334 333 333 334 337 339 341 342 343 343 345 347 347 344 345 346 341 346 343 342 341 341 340 342 344 345 345 345 345 346 348
328 323 326 327 326 329 326 327 327 326 331 329 329 328 330 331 331 331 333 330 331 334 333 336 339 340 343 342 343 345 346 341 341 342 341 343 342 343 338 340 342 343 341 342 346 347 345 340 346
327 321 325 326 326 325 328 323 322 331 329 327 328 329 330 333 334 331 334 332 331 331 332 332 335 340 338 342 342 343 344 347 341 342 344 342 341 337 337 339 340 340 339 341 347 346 345 343 344
322 321 312 323 325 325 324 313 325 332 328 326 328 330 331 334 334 332 334 333 330 329 328 330 336 339 340 341 342 344 344 342 341 342 343 343 339 340 333 337 340 339 338 341 343 343 344 342 338
314 307 312 317 325 323 319 313 323 331 328 325 327 329 330 331 333 335 336 334 330 329 328 328 334 339 340 340 344 341 339 339 341 344 342 346 338 342 337 338 338 339 337 338 340 344 342 335 335
306 305 310 311 322 321 316 314 319 326 328 327 326 326 329 329 331 334 335 336 331 332 331 330 333 338 342 342 339 340 342 343 343 344 345 346 341 340 338 335 337 338 334 337 339 341 342 338 336
314 308 310 317 324 320 315 314 318 323 326 326 327 326 328 329 332 333 336 337 336 336 335 334 334 337 340 332 335 337 338 341 341 340 344 342 340 342 343 339 338 334 332 335 339 341 338 336 335
313 308 309 316 323 320 317 316 318 322 321 325 327 328 327 329 332 335 337 336 337 336 337 336 337 339 341 338 339 339 338 342 340 339 339 345 345 343 343 339 335 333 334 339 339 337 332 329 334
308 308 309 310 318 321 317 311 315 320 322 323 327 330 331 328 329 333 336 337 338 337 339 338 339 339 341 342 343 340 339 340 342 340 344 346 347 345 340 339 333 332 335 337 337 337 332 336 337
302 315 315 316 312 302 316 299 309 315 319 322 323 326 329 332 329 329 335 337 338 340 341 340 340 340 342 343 341 339 336 334 337 341 343 345 349 346 343 338 336 337 339 336 339 350 346 343 337
306 316 314 316 308 306 310 302 306 313 312 318 321 322 328 331 332 327 333 336 339 341 338 341 341 340 343 342 341 339 335 335 338 341 342 341 344 345 343 342 341 340 341 340 342 346 345 346 343
315 309 307 305 305 296 303 305 301 307 312 316 321 323 326 330 333 334 333 335 337 335 339 343 340 340 344 342 339 339 338 338 338 340 341 339 341 344 344 344 342 341 344 346 345 348 346 344 344
302 293 288 293 294 294 298 305 305 316 321 323 322 322 325 329 332 332 332 331 332 333 339 342 340 338 342 344 342 340 339 340 338 339 341 339 341 342 343 344 345 344 347 346 348 346 344 346 345
294 292 288 285 285 289 300 297 306 317 323 327 328 326 326 327 331 333 332 334 334 334 339 341 341 339 341 343 342 342 342 342 339 341 342 341 341 343 342 344 347 345 345 346 346 345 345 346 346
293 290 293 288 288 289 294 307 314 318 316 320 323 324 324 327 329 332 334 335 338 336 338 339 340 341 341 343 342 341 341 342 340 342 341 340 340 341 343 350 348 346 345 347 346 344 343 345 344
294 295 289 289 287 286 295 299 301 306 311 316 317 323 324 326 329 331 334 335 337 339 339 341 341 340 342 343 343 341 341 342 343 342 342 339 339 340 343 343 342 342 346 350 349 344 343 340 337
301 299 295 294 293 289 288 295 308 308 310 314 316 322 327 324 327 330 334 336 337 339 342 342 343 341 343 342 343 342 341 341 343 342 341 341 342 341 341 342 341 345 346 349 346 344 345 341 339
304 299 297 293 293 292 292 295 311 313 315 316 317 325 329 324 328 330 334 335 335 336 341 342 344 342 343 341 341 343 343 342 341 342 341 341 340 343 342 346 343 345 345 345 343 343 346 343 342
Wind_Speed
3 1 3 3 3 5 2 3 3 3 3 4 4 5 9 9 2 3 1 5 7 5 5 6 9 10 9 7 5 8 13 12 11 10 11 12 11 12 11 10 10 10 10 10 10 10 9 10 10
4 5 3 2 5 4 3 1 3 3 6 9 11 6 7 4 4 5 4 3 7 6 3 5 8 11 9 9 9 7 12 13 12 11 8 11 12 12 11 10 9 10 10 9 8 9 8 7 8
5 4 4 4 2 4 3 2 10 12 12 3 5 5 4 2 5 6 4 8 7 5 4 6 10 12 10 9 9 8 9 11 11 9 9 11 11 11 9 10 10 9 8 7 6 5 5 7 5
1 4 3 4 4 1 4 8 10 10 4 8 9 6 4 2 3 5 10 9 8 5 5 8 11 11 9 7 7 9 10 9 9 9 9 10 10 9 9 9 8 7 6 4 3 4 6 2 3
4 4 4 2 4 4 3 11 12 4 4 7 4 4 4 4 10 9 8 6 7 5 4 5 11 10 10 7 7 8 7 9 9 9 9 8 9 8 7 6 6 6 3 3 3 4 2 1 1
5 2 4 3 4 2 3 10 7 10 10 11 9 5 3 8 8 5 7 6 5 5 3 4 10 11 10 11 9 7 6 8 7 8 7 8 7 6 5 5 4 3 3 4 3 1 3 4 6
6 4 2 3 8 5 6 8 6 13 11 5 8 5 4 3 5 6 6 6 5 5 5 2 3 9 11 10 9 7 6 5 6 6 5 5 4 4 3 3 2 2 3 4 2 5 6 7 8
4 4 1 3 4 4 8 0 6 9 5 9 12 7 6 5 8 7 6 5 4 4 4 3 1 3 5 5 8 7 5 3 5 4 2 2 1 1 1 2 4 5 5 5 6 6 6 8 10
2 5 4 2 0 3 10 3 8 6 11 4 3 7 10 13 10 8 5 3 4 4 3 3 2 3 4 4 5 7 5 4 5 5 4 4 2 3 3 4 5 6 7 7 8 9 9 8 9
3 2 8 7 1 3 11 6 7 6 10 8 14 13 14 14 12 10 6 5 4 4 2 1 2 4 3 2 3 2 2 3 3 3 0 1 1 1 3 4 7 7 7 9 10 10 11 12 7
4 4 5 5 2 5 8 11 2 13 6 13 19 18 15 13 9 9 6 5 5 4 3 3 3 3 3 3 1 2 2 1 1 1 3 3 1 0 3 2 2 3 6 3 5 4 7 11 9
5 5 5 7 1 3 1 4 6 11 5 14 20 19 17 14 11 10 6 5 6 6 5 5 4 4 2 2 2 2 0 1 2 3 4 2 2 3 2 1 3 4 4 6 4 6 8 10 7
4 4 4 11 8 4 8 7 6 9 13 14 15 16 16 11 10 7 6 4 5 6 6 6 5 4 3 3 2 1 2 1 3 2 4 0 2 3 3 1 1 3 3 3 3 9 8 7 2
4 6 7 7 7 3 2 2 4 8 16 16 16 16 14 10 11 5 8 7 7 6 7 6 5 4 4 3 2 2 1 1 0 2 2 1 1 2 3 2 2 4 3 2 1 7 7 5 4
11 6 5 6 5 3 3 1 6 7 17 17 16 13 11 9 10 10 10 10 11 6 5 5 3 3 5 3 3 3 3 2 3 3 4 3 3 1 3 3 4 3 2 2 4 3 1 6 4
1 3 3 4 6 3 3 4 3 1 13 18 16 13 14 14 13 9 6 5 6 6 9 7 7 6 4 4 4 3 3 2 3 4 3 2 1 2 2 2 3 2 2 2 2 2 3 3 5
3 2 4 3 9 3 3 3 5 2 8 16 15 15 15 10 8 9 9 7 7 7 8 8 6 6 5 5 2 3 2 1 1 2 2 2 4 3 3 3 1 4 3 3 1 2 2 1 1
4 3 4 4 9 6 5 7 2 3 8 8 16 16 13 13 17 14 13 9 6 5 4 6 5 5 6 2 1 2 3 3 1 3 3 4 3 4 3 1 2 4 3 4 3 2 1 3 1
4 4 3 2 7 6 8 4 7 5 3 7 5 16 16 16 16 13 11 10 6 5 5 6 7 7 4 2 1 1 1 1 1 2 4 5 5 4 3 1 2 3 3 2 2 2 3 2 2
5 3 2 1 9 5 6 9 8 7 6 6 7 6 15 14 14 13 11 11 10 8 7 6 7 7 5 3 1 1 2 1 2 2 3 4 4 3 3 1 1 4 3 3 2 2 2 2 1
4 7 4 4 5 3 3 4 4 5 4 5 6 5 5 9 16 16 14 14 11 11 11 10 9 8 6 6 3 3 2 2 2 2 3 4 5 2 1 3 2 2 2 1 1 1 0 1 2
5 12 7 6 5 3 5 4 4 4 7 6 8 7 5 7 7 11 16 14 14 14 11 9 8 8 6 7 3 4 4 3 3 2 2 3 4 3 3 3 1 1 1 2 1 2 2 2 2
12 9 13 5 4 2 2 2 5 2 7 8 9 9 9 9 9 11 17 17 16 13 12 11 8 6 7 7 6 5 3 2 1 1 2 2 2 4 4 2 2 1 1 3 3 2 1 2 2
5 8 8 7 3 3 6 6 5 3 5 4 9 13 13 11 8 6 8 13 13 10 10 9 9 7 6 7 7 7 6 3 2 2 3 2 2 3 3 4 2 2 2 3 3 1 2 2 2
7 7 4 4 2 7 1 5 8 5 6 5 6 11 14 13 10 10 10 13 12 13 12 10 11 8 7 7 7 8 7 6 6 3 4 5 3 2 5 4 4 3 5 5 3 1 1 2 1
5 8 7 7 5 5 1 4 5 4 6 3 7 9 12 14 13 13 14 10 14 13 13 13 11 11 8 7 7 6 7 5 4 5 4 4 4 4 3 3 3 5 5 5 2 0 1 2 0
3 4 5 8 3 3 2 4 6 4 3 1 3 1 11 15 15 14 11 9 9 9 14 16 14 11 10 8 6 7 6 7 6 5 3 3 4 3 3 5 6 4 5 4 3 2 2 2 0
5 4 3 5 3 2 4 4 5 1 2 6 7 5 5 8 9 11 13 15 12 13 12 14 14 14 11 8 8 7 7 6 6 5 6 6 4 3 3 4 6 4 4 3 5 3 2 1 1
6 4 7 6 3 5 1 7 6 5 4 5 6 7 9 8 12 10 12 13 14 7 8 9 9 9 10 9 7 7 6 6 6 6 6 6 3 5 6 5 5 4 3 2 4 5 4 4 3
5 3 4 6 3 1 3 8 2 5 6 5 7 8 10 5 9 9 9 11 9 8 7 10 7 7 5 5 5 6 5 5 6 6 7 6 6 5 6 5 5 5 5 3 4 5 4 4 4
Wind_Direction
260 201 129 52 60 73 37 32 104 105 355 341 43 104 111 30 4 185 19 127 118 131 166 156 169 158 152 151 124 139 127 121 118 115 103 114 110 111 108 106 108 104 100 97 99 99 104 103 111
230 203 53 80 82 63 279 53 90 102 127 126 84 90 53 57 43 102 105 176 128 135 149 134 160 161 155 153 145 143 130 123 120 123 109 112 110 106 109 108 100 93 91 94 84 86 96 106 94
186 44 76 72 116 148 151 56 123 142 161 161 120 68 90 92 110 155 148 137 120 128 140 151 160 164 158 160 157 143 125 121 124 126 110 110 108 107 106 102 90 88 89 84 94 99 91 75 80
68 17 54 65 31 5 156 146 132 145 94 62 103 68 72 107 133 161 142 135 125 132 132 161 154 153 151 156 142 132 125 124 122 114 113 111 116 117 105 98 96 88 80 93 129 103 75 105 75
26 46 24 21 13 307 226 151 158 145 92 105 80 106 63 38 93 106 116 125 126 140 143 155 160 156 151 147 118 123 131 123 124 130 129 124 124 113 106 102 89 85 95 120 98 101 154 334 325
50 70 29 357 303 49 112 132 117 100 92 102 91 93 46 121 108 116 109 103 110 125 136 166 163 157 151 151 130 126 112 109 124 129 132 117 121 123 117 96 82 88 66 71 72 37 13 336 337
103 88 91 276 269 240 116 108 146 124 120 101 132 83 125 111 119 111 103 104 109 116 124 125 176 156 141 140 127 121 110 106 123 113 123 139 131 126 102 69 15 354 13 29 359 4 353 334 333
86 60 118 34 336 45 23 54 175 115 84 107 139 159 171 180 133 102 88 93 87 91 108 107 346 124 114 120 119 106 88 88 81 111 118 111 126 88 32 34 342 328 334 334 336 339 323 333 336
112 147 152 243 283 21 325 56 185 83 130 210 177 128 141 135 119 107 102 85 91 101 75 96 103 65 104 123 147 130 109 94 65 40 27 36 26 12 4 338 320 311 324 330 332 331 326 328 325
158 123 177 180 150 335 317 281 121 129 148 97 94 103 135 136 140 143 149 158 136 142 127 130 142 122 104 98 81 100 43 39 71 73 225 218 225 307 306 341 313 326 350 345 342 348 348 353 4
160 175 164 196 91 341 314 126 96 147 155 163 154 146 154 146 149 152 158 180 168 156 151 179 183 139 120 105 156 65 56 305 38 277 282 279 268 320 21 358 334 34 28 15 1 345 40 41 55
103 89 142 131 134 308 78 333 224 177 203 161 157 157 154 159 161 168 154 181 156 162 167 170 175 159 119 144 109 83 217 49 66 23 346 334 107 117 85 338 355 55 4 20 8 58 83 79 80
91 153 161 148 176 214 277 248 206 203 146 151 150 158 163 166 176 160 133 187 172 172 178 179 176 173 177 146 98 193 215 4 37 337 337 310 127 110 104 34 38 76 43 349 45 105 112 117 76
108 134 138 170 200 267 302 360 151 142 138 155 165 173 174 172 172 151 151 177 203 177 184 167 172 195 188 184 191 259 16 48 64 250 268 237 49 131 114 82 57 54 36 317 93 138 166 183 149
134 106 165 165 164 223 240 24 140 102 153 166 178 181 182 190 173 198 184 185 187 200 158 157 154 199 221 226 248 251 228 201 201 221 239 188 46 321 129 114 60 49 33 10 96 142 168 75 74
290 65 124 210 173 204 235 187 183 47 172 172 188 182 191 201 201 188 198 202 200 175 169 167 191 206 195 211 241 258 236 222 213 239 179 181 208 199 135 66 91 86 63 50 78 129 66 112 186
8 198 175 186 194 124 195 200 196 140 148 177 186 188 197 198 196 203 201 203 213 205 161 177 187 194 213 232 234 253 234 210 260 265 203 167 201 185 181 174 163 67 37 62 355 65 104 107 87
178 210 231 186 194 175 178 261 173 214 128 146 186 193 188 197 200 207 196 190 196 222 200 175 179 192 197 202 52 340 355 36 85 196 230 201 222 204 199 179 142 87 34 5 15 79 21 103 105
163 192 193 139 171 165 196 228 223 193 210 155 161 184 181 195 204 203 201 180 174 197 232 206 174 201 165 124 140 276 229 146 208 240 209 224 207 209 96 29 96 90 69 11 346 278 129 69 214
223 233 248 181 169 166 173 222 230 175 215 181 172 182 175 191 188 197 195 190 178 201 217 225 208 190 186 155 155 191 141 218 151 239 250 253 266 199 126 180 222 95 62 345 344 321 23 118 248
217 213 176 183 163 215 126 295 187 236 189 206 193 186 171 176 187 184 186 192 182 197 208 211 212 193 182 144 156 83 45 37 116 194 233 232 234 301 240 185 220 109 124 277 211 210 214 8 75
204 210 204 158 129 229 149 276 267 215 227 196 220 188 194 191 151 189 186 187 192 200 206 207 214 183 181 163 173 148 173 180 236 173 229 239 205 240 220 180 113 34 113 249 68 230 214 179 118
227 170 199 118 92 336 279 84 267 108 240 217 203 220 186 208 175 178 189 193 198 188 199 203 197 198 171 165 184 174 160 212 264 210 189 248 274 216 230 162 143 297 242 273 248 191 97 77 150
85 79 46 53 69 351 235 152 278 215 231 248 205 206 196 193 172 161 189 197 186 177 186 190 183 189 175 175 180 169 177 201 219 267 183 222 252 258 211 222 249 259 285 273 255 323 50 83 94
73 68 25 12 25 226 111 119 242 246 243 235 275 223 201 187 167 173 182 188 177 164 175 179 180 182 193 192 185 174 189 191 212 237 210 180 210 247 248 212 198 231 239 252 249 332 2 339 174
172 151 154 183 189 235 110 225 252 222 291 253 263 248 188 179 182 185 182 182 176 175 168 172 200 184 194 197 199 189 176 186 204 207 186 201 206 216 249 246 208 231 241 240 256 256 319 344 75
198 186 182 105 4 75 248 295 297 247 169 217 319 5 191 188 184 180 169 177 152 196 187 181 184 201 187 206 183 194 187 183 198 212 195 201 225 232 206 225 193 201 244 242 234 259 267 161 136
112 150 50 8 143 251 309 288 245 277 346 328 338 339 218 206 208 187 168 179 186 201 196 189 181 189 189 185 197 197 196 204 188 183 192 210 216 199 222 203 222 213 249 238 189 213 247 331 300
16 22 56 109 106 157 211 264 221 222 223 256 299 292 289 210 200 181 184 169 173 162 178 184 182 171 186 180 189 198 202 199 188 186 174 208 205 210 208 217 233 231 254 314 167 196 232 240 253
87 100 108 116 229 57 141 269 273 245 246 240 274 291 289 199 190 184 164 154 147 148 149 193 177 159 169 182 191 193 200 203 203 201 198 192 214 195 216 221 203 211 219 188 200 208 228 238 252